GW4935 Weather Reports


time (UTC)temp
C
wind
direction
speed
KPH
gust
KPH
rain 1hr
cm
rain 24hr
cm
rain mn
cm
humidity
%
barometer
mb
20260901173544 33 306 4.8 14.5 0.00 0.00 0.00 54 1019.0
20260901173103 33 179 3.2 9.7 0.00 0.00 0.00 56 1019.2
20260901172544 33 176 4.8 11.3 0.00 0.00 0.00 57 1019.2
20260901172041 33 177 4.8 11.3 0.00 0.00 0.00 56 1019.2
20260901171608 33 237 4.8 12.9 0.00 0.00 0.00 58 1019.3
20260901171040 32 199 4.8 12.9 0.00 0.00 0.00 58 1019.4
20260901170544 32 134 6.4 9.7 0.00 0.00 0.00 59 1019.4
20260901170159 32 263 3.2 9.7 0.00 0.00 0.00 58 1019.5
20260901165546 32 222 6.4 9.7 0.00 0.00 0.00 57 1019.6
20260901165046 32 218 4.8 11.3 0.00 0.00 0.00 58 1019.6
20260901164605 32 206 4.8 12.9 0.00 0.00 0.00 61 1019.7
20260901164041 32 266 3.2 12.9 0.00 0.00 0.00 62 1019.7
20260901163542 32 277 6.4 11.3 0.00 0.00 0.00 60 1019.7
20260901163110 32 206 3.2 8.0 0.00 0.00 0.00 65 1019.8
20260901162546 32 0 1.6 8.0 0.00 0.00 0.00 62 1019.8
20260901162042 32 234 4.8 9.7 0.00 0.00 0.00 67 1019.7
20260901161615 32 280 4.8 9.7 0.00 0.00 0.00 61 1019.8
20260901161041 32 249 3.2 9.7 0.00 0.00 0.00 64 1019.7
20260901160542 31 344 1.6 9.7 0.00 0.00 0.00 62 1019.7
20260901160058 31 275 3.2 12.9 0.00 0.00 0.00 64 1019.7
20260901155542 31 263 6.4 12.9 0.00 0.00 0.00 63 1019.7
20260901155044 31 311 6.4 12.9 0.00 0.00 0.00 64 1019.7
20260901154605 31 279 6.4 14.5 0.00 0.00 0.00 64 1019.9
20260901154043 31 277 4.8 14.5 0.00 0.00 0.00 65 1019.9
20260901153541 31 295 6.4 14.5 0.00 0.00 0.00 65 1019.9
20260901153127 31 279 6.4 14.5 0.00 0.00 0.00 65 1020.0
20260901152540 31 298 6.4 14.5 0.00 0.00 0.00 66 1020.0
20260901152042 31 229 6.4 11.3 0.00 0.00 0.00 64 1020.0
20260901151600 30 282 3.2 11.3 0.00 0.00 0.00 67 1020.0
20260901151043 30 217 4.8 14.5 0.00 0.00 0.00 67 1019.9
20260901150544 30 276 4.8 14.5 0.00 0.00 0.00 69 1019.9
20260901150058 30 231 1.6 8.0 0.00 0.00 0.00 67 1019.9
20260901145544 30 197 4.8 8.0 0.00 0.00 0.00 70 1019.9
20260901145042 30 219 4.8 9.7 0.00 0.00 0.00 71 1019.9
20260901144600 30 220 4.8 9.7 0.00 0.00 0.00 69 1019.9
20260901144045 29 225 3.2 12.9 0.00 0.00 0.00 73 1019.9
20260901143543 29 225 6.4 12.9 0.00 0.00 0.00 72 1020.0
20260901143103 29 216 6.4 9.7 0.00 0.00 0.00 72 1020.0
20260901142542 29 238 4.8 9.7 0.00 0.00 0.00 72 1019.9
20260901142042 29 238 3.2 9.7 0.00 0.00 0.00 75 1019.9
20260901141559 28 240 4.8 9.7 0.00 0.00 0.00 73 1020.0
20260901141043 28 207 0.0 8.0 0.00 0.00 0.00 74 1020.0
20260901140542 28 188 4.8 8.0 0.00 0.00 0.00 77 1020.0
20260901140112 28 227 1.6 9.7 0.00 0.00 0.00 74 1019.9
20260901135546 27 180 3.2 9.7 0.00 0.00 0.00 76 1019.9
20260901135043 27 196 4.8 8.0 0.00 0.00 0.00 76 1019.9
20260901134604 27 223 3.2 8.0 0.00 0.00 0.00 77 1019.9
20260901134042 27 171 1.6 8.0 0.00 0.00 0.00 79 1019.9
20260901133543 27 217 3.2 8.0 0.00 0.00 0.00 79 1019.9
20260901133101 27 190 3.2 8.0 0.00 0.00 0.00 81 1019.9
20260901132541 26 240 3.2 8.0 0.00 0.00 0.00 82 1019.9
20260901132044 26 217 3.2 4.8 0.00 0.00 0.00 83 1019.8
20260901131630 26 0 0.0 4.8 0.00 0.00 0.00 84 1019.9
20260901131043 25 0 0.0 0.0 0.00 0.00 0.00 86 1019.8
20260901130543 25 0 0.0 0.0 0.00 0.00 0.00 85 1019.8
20260901130101 25 0 0.0 0.0 0.00 0.00 0.00 86 1019.8
20260901125543 25 0 0.0 0.0 0.00 0.00 0.00 88 1019.7
20260901125043 24 0 0.0 3.2 0.00 0.00 0.00 88 1019.7
20260901124603 23 0 0.0 3.2 0.00 0.00 0.00 88 1019.7
20260901124041 23 0 0.0 0.0 0.00 0.00 0.00 89 1019.6
20260901123542 23 0 0.0 0.0 0.00 0.00 0.00 90 1019.6
20260901123106 22 0 0.0 0.0 0.00 0.00 0.00 91 1019.5
20260901122544 22 0 0.0 0.0 0.00 0.00 0.00 91 1019.6
20260901122043 22 0 0.0 0.0 0.00 0.00 0.00 92 1019.5
20260901121607 22 0 0.0 0.0 0.00 0.00 0.00 92 1019.4
20260901121044 21 0 0.0 0.0 0.00 0.00 0.00 92 1019.3
20260901120546 21 0 0.0 0.0 0.00 0.00 0.00 92 1019.2
20260901120108 21 0 0.0 0.0 0.00 0.00 0.00 90 1019.2
20260901115542 21 0 0.0 0.0 0.00 0.00 0.00 90 1019.2
20260901115044 21 0 0.0 3.2 0.00 0.00 0.00 90 1019.2
20260901114605 22 0 0.0 3.2 0.00 0.00 0.00 90 1019.2
20260901114043 22 0 0.0 0.0 0.00 0.00 0.00 90 1019.1
20260901113543 22 0 0.0 0.0 0.00 0.00 0.00 90 1019.0
20260901113110 22 0 0.0 0.0 0.00 0.00 0.00 90 1019.0
20260901112540 22 0 0.0 0.0 0.00 0.00 0.00 90 1018.9
20260901112046 22 0 0.0 0.0 0.00 0.00 0.00 90 1018.8
20260901111610 22 0 0.0 0.0 0.00 0.00 0.00 90 1018.8
20260901111042 22 0 0.0 0.0 0.00 0.00 0.00 90 1018.5
20260901110542 22 0 0.0 0.0 0.00 0.00 0.00 91 1018.5
20260901110118 22 0 0.0 0.0 0.00 0.00 0.00 91 1018.4
20260901105542 22 0 0.0 0.0 0.00 0.00 0.00 91 1018.4
20260901105042 22 0 0.0 0.0 0.00 0.00 0.00 91 1018.4
20260901104604 22 0 0.0 0.0 0.00 0.00 0.00 91 1018.4
20260901104043 22 0 0.0 0.0 0.00 0.00 0.00 91 1018.4
20260901103542 22 0 0.0 0.0 0.00 0.00 0.00 90 1018.4
20260901103106 22 0 0.0 0.0 0.00 0.00 0.00 90 1018.4
20260901102543 22 0 0.0 0.0 0.00 0.00 0.00 90 1018.4
20260901102042 22 0 0.0 0.0 0.00 0.00 0.00 90 1018.4
20260901101609 22 0 0.0 0.0 0.00 0.00 0.00 90 1018.3
20260901101044 22 0 0.0 0.0 0.00 0.00 0.00 90 1018.4
20260901100545 22 0 0.0 0.0 0.00 0.00 0.00 90 1018.3
20260901100110 22 0 0.0 0.0 0.00 0.00 0.00 91 1018.4
20260901095542 22 0 0.0 0.0 0.00 0.00 0.00 91 1018.3
20260901095042 22 0 0.0 0.0 0.00 0.00 0.00 91 1018.2
20260901094608 22 0 0.0 0.0 0.00 0.00 0.00 91 1018.1
20260901094043 22 0 0.0 0.0 0.00 0.00 0.00 91 1018.1
20260901093543 22 0 0.0 0.0 0.00 0.00 0.00 91 1018.0
20260901093105 22 0 0.0 0.0 0.00 0.00 0.00 91 1018.1
20260901092542 22 0 0.0 0.0 0.00 0.00 0.00 91 1018.0
20260901092042 22 0 0.0 0.0 0.00 0.00 0.00 91 1018.1
20260901091600 22 0 0.0 0.0 0.00 0.00 0.00 91 1018.1
20260901091041 22 0 0.0 0.0 0.00 0.00 0.00 91 1018.0
20260901090545 22 0 0.0 0.0 0.00 0.00 0.00 91 1018.1
20260901090106 22 0 0.0 0.0 0.00 0.00 0.00 90 1018.0
20260901085541 22 0 0.0 0.0 0.00 0.00 0.00 90 1017.8
20260901085043 22 0 0.0 0.0 0.00 0.00 0.00 90 1017.9
20260901084616 22 0 0.0 0.0 0.00 0.00 0.00 90 1017.9
20260901084042 22 0 0.0 0.0 0.00 0.00 0.00 90 1017.9
20260901083542 22 0 0.0 0.0 0.00 0.00 0.00 90 1017.8
20260901083103 22 0 0.0 0.0 0.00 0.00 0.00 90 1017.8
20260901082543 22 0 0.0 0.0 0.00 0.00 0.00 91 1017.8
20260901082043 22 0 0.0 0.0 0.00 0.00 0.00 91 1017.7
20260901081610 22 0 0.0 0.0 0.00 0.00 0.00 91 1017.7
20260901081042 22 0 0.0 0.0 0.00 0.00 0.00 91 1017.7
20260901080543 22 0 0.0 0.0 0.00 0.00 0.00 91 1017.7
20260901080100 22 0 0.0 0.0 0.00 0.00 0.00 91 1017.7
20260901075543 22 0 0.0 0.0 0.00 0.00 0.00 92 1017.7
20260901075042 22 0 0.0 0.0 0.00 0.00 0.00 91 1017.6
20260901074604 21 0 0.0 0.0 0.00 0.00 0.00 92 1017.6
20260901074046 21 0 0.0 0.0 0.00 0.00 0.00 92 1017.6
20260901073542 21 0 0.0 0.0 0.00 0.00 0.00 92 1017.7
20260901073101 21 0 0.0 0.0 0.00 0.00 0.00 92 1017.6
20260901072541 21 0 0.0 0.0 0.00 0.00 0.00 92 1017.7
20260901072041 21 0 0.0 0.0 0.00 0.00 0.00 92 1017.6
20260901071601 21 0 0.0 0.0 0.00 0.00 0.00 92 1017.6
20260901071042 21 0 0.0 0.0 0.00 0.00 0.00 92 1017.6
20260901070540 21 0 0.0 0.0 0.00 0.00 0.00 92 1017.6
20260901070100 21 0 0.0 0.0 0.00 0.00 0.00 91 1017.7
20260901065542 21 0 0.0 0.0 0.00 0.00 0.00 90 1017.6
20260901065135 22 0 0.0 0.0 0.00 0.00 0.00 91 1017.6
20260901064558 22 0 0.0 0.0 0.00 0.00 0.00 91 1017.7
20260901064043 22 0 0.0 0.0 0.00 0.00 0.00 91 1017.8
20260901063542 22 0 0.0 0.0 0.00 0.00 0.00 91 1017.8
20260901063103 22 0 0.0 0.0 0.00 0.00 0.00 91 1017.8
20260901062541 21 0 0.0 0.0 0.00 0.00 0.00 91 1017.9
20260901062043 21 0 0.0 0.0 0.00 0.00 0.00 91 1018.0
20260901061610 21 0 0.0 0.0 0.00 0.00 0.00 91 1018.0
20260901061043 22 0 0.0 0.0 0.00 0.00 0.00 91 1018.0
20260901060545 21 0 0.0 0.0 0.00 0.00 0.00 91 1018.0
20260901060104 22 0 0.0 0.0 0.00 0.00 0.00 90 1018.0
20260901055542 22 0 0.0 0.0 0.00 0.00 0.00 91 1018.1
20260901055042 22 0 0.0 0.0 0.00 0.00 0.00 91 1018.2
20260901054602 22 0 0.0 0.0 0.00 0.00 0.00 91 1018.1
20260901054044 22 0 0.0 0.0 0.00 0.00 0.00 91 1018.1
20260901053543 22 0 0.0 0.0 0.00 0.00 0.00 91 1018.1
20260901053124 22 0 0.0 0.0 0.00 0.00 0.00 92 1018.1
20260901052542 22 0 0.0 0.0 0.00 0.00 0.00 91 1018.0
20260901052042 22 0 0.0 0.0 0.00 0.00 0.00 91 1018.1
20260901051602 22 0 0.0 0.0 0.00 0.00 0.00 91 1018.1
20260901051043 22 0 0.0 0.0 0.00 0.00 0.00 91 1018.1
20260901050544 22 0 0.0 0.0 0.00 0.00 0.00 91 1018.1
20260901050100 22 0 0.0 0.0 0.00 0.00 0.00 90 1018.1
20260901045544 22 0 0.0 0.0 0.00 0.00 0.00 89 1018.1
20260901045043 22 0 0.0 0.0 0.00 0.00 0.00 89 1018.0
20260901044606 23 0 0.0 0.0 0.00 0.00 0.00 89 1018.0
20260901044044 23 0 0.0 0.0 0.00 0.00 0.00 89 1018.1
20260901043543 23 0 0.0 0.0 0.00 0.00 0.00 89 1018.1
20260901043103 22 0 0.0 0.0 0.00 0.00 0.00 90 1018.2
20260901042542 22 0 0.0 0.0 0.00 0.00 0.00 91 1018.1
20260901042043 22 0 0.0 0.0 0.00 0.00 0.00 91 1018.1
20260901041605 22 0 0.0 0.0 0.00 0.00 0.00 91 1018.0
20260901041043 22 0 0.0 0.0 0.00 0.00 0.00 91 1018.0
20260901040543 22 0 0.0 0.0 0.00 0.00 0.00 91 1018.1
20260901040124 22 0 0.0 0.0 0.00 0.00 0.00 91 1018.0
20260901035543 22 0 0.0 0.0 0.00 0.00 0.00 91 1018.1
20260901035044 22 0 0.0 0.0 0.00 0.00 0.00 90 1018.0
20260901034605 22 0 0.0 0.0 0.00 0.00 0.00 90 1018.0
20260901034043 22 0 0.0 0.0 0.00 0.00 0.00 90 1018.1
20260901033543 23 0 0.0 0.0 0.00 0.00 0.00 89 1017.9
20260901033125 23 0 0.0 0.0 0.00 0.00 0.00 89 1018.0
20260901032543 23 0 0.0 0.0 0.00 0.00 0.00 88 1018.0
20260901032043 23 0 0.0 0.0 0.00 0.00 0.00 88 1017.9
20260901031614 23 0 0.0 0.0 0.00 0.00 0.00 88 1017.9
20260901031046 23 0 0.0 0.0 0.00 0.00 0.00 88 1018.0
20260901030542 23 0 0.0 0.0 0.00 0.00 0.00 88 1017.9
20260901030106 23 0 0.0 0.0 0.00 0.00 0.00 89 1017.9
20260901025543 23 0 0.0 0.0 0.00 0.00 0.00 89 1017.8
20260901025043 23 0 0.0 0.0 0.00 0.00 0.00 88 1017.9
20260901024603 23 0 0.0 0.0 0.00 0.00 0.00 89 1017.8
20260901024044 23 0 0.0 0.0 0.00 0.00 0.00 88 1017.9
20260901023542 23 0 0.0 0.0 0.00 0.00 0.00 89 1017.8
20260901023106 23 0 0.0 0.0 0.00 0.00 0.00 88 1017.8
20260901022543 23 0 0.0 0.0 0.00 0.00 0.00 87 1017.9
20260901022041 24 0 0.0 0.0 0.00 0.00 0.00 87 1017.8
20260901021608 24 0 0.0 0.0 0.00 0.00 0.00 87 1017.8
20260901021042 24 0 0.0 0.0 0.00 0.00 0.00 87 1017.6
20260901020544 24 0 0.0 0.0 0.00 0.00 0.00 86 1017.6
20260901020108 25 0 0.0 0.0 0.00 0.00 0.00 85 1017.5
20260901015542 25 0 0.0 0.0 0.00 0.00 0.00 85 1017.5
20260901015044 25 0 0.0 0.0 0.00 0.00 0.00 84 1017.4
20260901014608 25 0 0.0 0.0 0.00 0.00 0.00 84 1017.3
20260901014046 25 0 0.0 0.0 0.00 0.00 0.00 85 1017.3
20260901013544 25 0 0.0 0.0 0.00 0.00 0.00 85 1017.3
20260901013109 25 0 0.0 0.0 0.00 0.00 0.00 85 1017.1
20260901012542 25 0 0.0 0.0 0.00 0.00 0.00 84 1017.0
20260901012042 25 0 0.0 0.0 0.00 0.00 0.00 84 1017.0
20260901011613 25 0 0.0 0.0 0.00 0.00 0.00 84 1016.9
20260901011042 25 0 0.0 0.0 0.00 0.00 0.00 84 1017.0
20260901010543 25 0 0.0 0.0 0.00 0.00 0.00 84 1016.9
20260901010108 26 0 0.0 0.0 0.00 0.00 0.00 83 1017.0
20260901005543 26 0 0.0 0.0 0.00 0.00 0.00 84 1017.0
20260901005044 26 0 0.0 0.0 0.00 0.00 0.00 83 1016.9
20260901004608 26 0 0.0 0.0 0.00 0.00 0.00 82 1016.9
20260901004042 26 0 0.0 0.0 0.00 0.00 0.00 82 1016.8
20260901003542 26 0 0.0 0.0 0.00 0.00 0.00 82 1017.0
20260901003057 27 0 0.0 0.0 0.00 0.00 0.00 79 1017.0
20260901002544 27 0 0.0 0.0 0.00 0.00 0.00 78 1016.9
20260901002042 27 0 0.0 3.2 0.00 0.00 0.00 78 1016.8
20260901001606 27 0 0.0 3.2 0.00 0.00 0.00 78 1016.9
20260901001043 28 0 0.0 3.2 0.00 0.00 0.00 77 1017.0
20260901000542 28 0 0.0 0.0 0.00 0.00 0.00 75 1016.9
20260901000107 28 0 0.0 0.0 0.00 0.00 0.00 75 1016.9
20260831235543 29 0 0.0 0.0 0.00 0.00 0.00 71 1016.9
20260831235042 30 0 0.0 3.2 0.00 0.00 0.00 69 1017.0
20260831234606 30 0 0.0 3.2 0.00 0.00 0.00 67 1017.1
20260831234044 31 0 0.0 3.2 0.00 0.00 0.00 67 1017.1
20260831233542 31 0 0.0 0.0 0.00 0.00 0.00 62 1017.1
20260831233108 30 0 0.0 0.0 0.00 0.00 0.00 67 1017.2
20260831232543 30 0 0.0 1.6 0.00 0.00 0.00 70 1017.1
20260831232042 31 0 0.0 4.8 0.00 0.00 0.00 69 1017.3
20260831231606 31 0 0.0 4.8 0.00 0.00 0.00 67 1017.2
20260831231042 31 0 0.0 3.2 0.00 0.00 0.00 67 1017.2
20260831230542 31 0 0.0 3.2 0.00 0.00 0.00 67 1017.2
20260831230140 31 180 1.6 3.2 0.00 0.00 0.00 64 1017.3
20260831225541 31 194 1.6 4.8 0.00 0.00 0.00 63 1017.3
20260831225041 32 186 1.6 4.8 0.00 0.00 0.00 64 1017.3
20260831224621 32 0 1.6 6.4 0.00 0.00 0.00 63 1017.4
20260831224043 32 207 3.2 6.4 0.00 0.00 0.00 59 1017.4
20260831223545 32 211 1.6 6.4 0.00 0.00 0.00 59 1017.5
20260831223102 32 207 4.8 6.4 0.00 0.00 0.00 60 1017.4
20260831222543 32 211 3.2 6.4 0.00 0.00 0.00 54 1017.5
20260831222043 32 193 3.2 6.4 0.00 0.00 0.00 61 1017.5
20260831221630 32 202 3.2 6.4 0.00 0.00 0.00 61 1017.4
20260831221042 33 172 3.2 6.4 0.00 0.00 0.00 57 1017.4
20260831220543 33 236 3.2 9.7 0.00 0.00 0.00 53 1017.6
20260831220104 33 263 4.8 9.7 0.00 0.00 0.00 51 1017.6
20260831215544 33 259 4.8 12.9 0.00 0.00 0.00 54 1017.5
20260831215043 33 235 3.2 12.9 0.00 0.00 0.00 55 1017.6
20260831214603 33 238 3.2 12.9 0.00 0.00 0.00 54 1017.7
20260831214043 33 297 3.2 8.0 0.00 0.00 0.00 52 1017.6
20260831213542 33 292 0.0 8.0 0.00 0.00 0.00 52 1017.7
20260831213102 33 240 1.6 11.3 0.00 0.00 0.00 52 1017.8
20260831212543 33 128 1.6 11.3 0.00 0.00 0.00 52 1017.7
20260831212042 33 103 4.8 9.7 0.00 0.00 0.00 54 1017.8
20260831211616 33 193 1.6 9.7 0.00 0.00 0.00 58 1017.7
20260831211042 33 229 4.8 9.7 0.00 0.00 0.00 53 1017.8
20260831210544 33 327 1.6 6.4 0.00 0.00 0.00 51 1017.8
20260831205543 33 248 4.8 11.3 0.00 0.00 0.00 52 1018.0
20260831205043 33 255 3.2 9.7 0.00 0.00 0.00 53 1018.0
20260831204559 33 198 3.2 9.7 0.00 0.00 0.00 54 1018.0
20260831204041 33 287 3.2 8.0 0.00 0.00 0.00 56 1018.0
20260831203542 33 211 3.2 8.0 0.00 0.00 0.00 56 1018.1
20260831203057 33 0 3.2 8.0 0.00 0.00 0.00 53 1018.1
20260831202542 33 269 1.6 11.3 0.00 0.00 0.00 53 1018.1
20260831202042 33 252 4.8 12.9 0.00 0.00 0.00 52 1018.1
20260831201608 33 233 4.8 11.3 0.00 0.00 0.00 55 1018.3
20260831201043 33 331 3.2 6.4 0.00 0.00 0.00 52 1018.3
20260831200543 33 192 1.6 6.4 0.00 0.00 0.00 53 1018.2
20260831195540 33 0 0.0 9.7 0.00 0.00 0.00 53 1018.4
20260831195044 33 271 1.6 12.9 0.00 0.00 0.00 52 1018.5
20260831194658 33 293 3.2 12.9 0.00 0.00 0.00 55 1018.6
20260831194043 33 238 6.4 14.5 0.00 0.00 0.00 52 1018.6
20260831193541 33 218 6.4 14.5 0.00 0.00 0.00 54 1018.7
20260831193108 33 277 6.4 14.5 0.00 0.00 0.00 57 1018.6
20260831192543 32 258 1.6 12.9 0.00 0.00 0.00 54 1018.6
20260831192044 32 289 6.4 12.9 0.00 0.00 0.00 54 1018.7
20260831191608 32 196 0.0 11.3 0.00 0.00 0.00 57 1018.8
20260831191043 32 260 3.2 11.3 0.00 0.00 0.00 57 1018.7
20260831190542 32 287 4.8 11.3 0.00 0.00 0.00 56 1018.8
20260831190110 32 253 3.2 12.9 0.00 0.00 0.00 58 1018.8
20260831185544 33 257 3.2 12.9 0.00 0.00 0.00 57 1018.8
20260831185042 32 236 3.2 6.4 0.00 0.00 0.00 57 1019.0
20260831184613 32 0 0.0 4.8 0.00 0.00 0.00 55 1018.9
20260831184045 32 245 0.0 9.7 0.00 0.00 0.00 57 1019.0
20260831183543 31 269 3.2 9.7 0.00 0.00 0.00 58 1019.1
20260831183056 32 307 4.8 9.7 0.00 0.00 0.00 57 1019.2
20260831182542 32 220 3.2 11.3 0.00 0.00 0.00 58 1019.4
20260831182044 32 258 6.4 11.3 0.00 0.00 0.00 60 1019.4
20260831181557 32 16 3.2 11.3 0.00 0.00 0.00 57 1019.3
20260831181043 32 279 4.8 12.9 0.00 0.00 0.00 57 1019.4
20260831180541 32 281 3.2 12.9 0.00 0.00 0.00 57 1019.5
20260831180100 32 274 6.4 12.9 0.00 0.00 0.00 56 1019.5
20260831175545 32 294 4.8 11.3 0.00 0.00 0.00 59 1019.7
20260831175043 32 319 4.8 9.7 0.00 0.00 0.00 60 1019.7
20260831174606 32 293 3.2 11.3 0.00 0.00 0.00 62 1019.8
20260831174043 31 284 4.8 11.3 0.00 0.00 0.00 64 1019.8